Regional Weather Roundup
Issued by NWS Memphis, TN

Home | Current Version | Previous Version | Text Only | Print | Product List | Glossary On
Versions: 1 2 3 4 5 6 7 8 9 10 11 12 13 14 15 16 17 18 19 20 21 22 23 24 25 26 27 28 29 30 31 32 33 34 35 36 37 38 39 40 41 42 43 44 45 46 47 48 49 50
000
ASUS44 KMEG 280310
RWRMEG
MEMPHIS CWA HOURLY WEATHER ROUNDUP
NATIONAL WEATHER SERVICE MEMPHIS TN
1000 PM CDT WED AUG 27 2014

...WEST TENNESSEE...

CITY           SKY/WX    TMP DP  RH WIND       PRES   REMARKS
MEMPHIS INTL   CLEAR     83  66  56 E6        30.04R
NWS MEMPHIS      N/A     78 N/A N/A MISG        N/A
JACKSON        CLEAR     75  72  90 CALM      30.05S
LEXINGTON      CLEAR     75  72  88 CALM      30.05R
SAVANNAH       CLEAR     72  72 100 CALM      30.06R
DYERSBURG      CLEAR     77  66  69 CALM      30.06S
UNION CITY     CLEAR     77  75  94 CALM      30.04S
PARIS          CLEAR     72  72 100 CALM      30.07R
HUNTINGDON     CLEAR     73  71  93 CALM      30.06R


...EASTERN ARKANSAS...

CITY           SKY/WX    TMP DP  RH WIND       PRES   REMARKS
JONESBORO      CLEAR     77  71  82 CALM      30.03S
WEST MEMPHIS   CLEAR     76  70  82 CALM      30.02R
BATESVILLE     CLEAR     82  70  65 SE3       30.04R
NEWPORT        CLEAR     81  73  76 SE6       30.04S
WALNUT RIDGE   CLEAR     79  72  78 SE5       30.03S
BLYTHEVILLE    CLEAR     80  74  81 CALM      30.04S
SEARCY         CLEAR     76  73  90 MISG      30.04R
STUTTGART      CLEAR     81  68  65 E5        30.03R
PINE BLUFF     CLEAR     75  71  87 CALM      30.02R
MONTICELLO     CLEAR     74  69  85 CALM      30.01R


...NORTH MISSISSIPPI...

CITY           SKY/WX    TMP DP  RH WIND       PRES   REMARKS
TUPELO         CLEAR     74  67  78 NE6       30.04R
OLIVE BRANCH   CLEAR     79  72  78 CALM      30.05R
CLARKSDALE     CLEAR     75  72  88 CALM      30.03R
CORINTH          N/A     73  70  88 CALM      30.05R
GRENADA        CLEAR     72  68  88 CALM      30.03R
GREENWOOD      CLEAR     74  70  87 CALM      30.01R
COLUMBUS       PTCLDY    75  68  78 NW2       30.03R
STARKVILLE     FAIR      72  66  83 CALM      30.03R
GOLDEN TRIANGL PTCLDY    75  64  69 CALM      30.04R


...SOUTHEAST MISSOURI...

CITY           SKY/WX    TMP DP  RH WIND       PRES   REMARKS
WEST PLAINS    PTCLDY    75  67  76 CALM      30.10R
POPLAR BLUFF   MOCLDY    78  72  81 CALM      30.03S
CAPE GIRARDEAU MOCLDY    81  75  82 N7        30.06R


...NORTHWEST ALABAMA...

CITY           SKY/WX    TMP DP  RH WIND       PRES   REMARKS
MUSCLE SHOALS  MOCLDY    77  71  82 CALM      30.06R


...MIDDLE TENNESSEE...

CITY           SKY/WX    TMP DP  RH WIND       PRES   REMARKS
NASHVILLE      PTCLDY    81  71  71 NE3       30.06R
CLARKSVILLE    CLEAR     78  71  79 CALM      30.06R
DICKSON        CLEAR     75  73  94 CALM      30.07R
COLUMBIA       CLEAR     75  75 100 CALM      30.05S
LEWISBURG      CLEAR     71  67  87 CALM      30.06R


...WESTERN KENTUCKY...

CITY           SKY/WX    TMP DP  RH WIND       PRES   REMARKS
PADUCAH        MOCLDY    78  71  79 CALM      30.05R
FORT CAMPBELL  PTCLDY    79  73  82 VRB1      30.06R


...CENTRAL ARKANSAS...

CITY           SKY/WX    TMP DP  RH WIND       PRES   REMARKS
LITTLE ROCK    PTCLDY    80  68  66 CALM      30.02R


SKY/WX REPORTED AS FAIR MEANS FEW OR NO CLOUDS BELOW
12 THOUSAND FEET.




USA.gov is the U.S. government's official web portal to all federal, state and local government web resources and services.